QPF
0.00 0.00 0.00 0.00 0.00 0.00 0.00 0.00 0.00 0.00 0.00 0.00 0.00 0.00 0.00 0.00 0.00 0.00 0.00 0.00 0.00 0.00 0.00 0.00 0.00 0.00 0.00 0.00 0.00 0.00 0.00 0.00 0.00 0.00 0.00 0.00 0.00 0.00 0.00 0.00 0.00 0.00 0.00 0.00 0.00 0.00 0.00 0.00 0.00 0.00 0.00 0.00 0.00 0.00 0.00 0.00 0.00 0.00 0.00 0.00 0.00 0.00 0.00 0.00 0.00 0.00 0.00 0.00 0.00 0.00 0.00 0.00 0.00 0.00
0.00 0.00 0.00 0.00 0.00 0.00 0.00 0.00 0.00 0.00 0.00 0.00 0.00 0.00 0.00 0.00 0.00 0.00 0.00 0.00 0.00 0.00 0.00 0.00 0.00 0.00 0.00 0.00 0.00 0.00 0.00 0.00 0.00 0.00 0.00 0.00 0.00 0.00 0.00 0.00 0.00 0.00 0.00 0.00 0.00 0.00 0.00 0.00 0.00 0.00 0.00 0.00 0.00 0.00 0.00 0.00 0.00 0.00 0.00 0.00 0.00 0.00 0.00 0.00 0.00 0.00 0.00 0.00 0.00 0.00 0.00 0.00 0.00 0.00
0.00 0.00 0.00 0.00 0.00 0.00 0.00 0.00 0.00 0.00 0.00 0.00 0.00 0.00 0.00 0.00 0.00 0.00 0.00 0.00 0.00 0.00 0.00 0.00 0.00 0.00 0.00 0.00 0.00 0.00 0.00 0.00 0.00 0.00 0.00 0.00 0.00 0.00 0.00 0.00 0.00 0.00 0.00 0.00 0.00 0.00 0.00 0.00 0.00 0.00 0.00 0.00 0.00 0.00 0.00 0.00 0.00 0.00 0.00 0.00 0.00 0.00 0.00 0.00 0.00 0.00 0.00 0.00 0.00 0.00 0.00 0.00 0.00 0.00
0.00 0.00 0.00 0.00 0.00 0.00 0.00 0.00 0.00 0.00 0.00 0.00 0.00 0.00 0.00 0.00 0.00 0.00 0.00 0.00 0.00 0.00 0.00 0.00 0.00 0.00 0.00 0.00 0.00 0.00 0.00 0.00 0.00 0.00 0.00 0.00 0.00 0.00 0.00 0.00 0.00 0.00 0.00 0.00 0.00 0.00 0.00 0.00 0.00 0.00 0.00 0.00 0.00 0.00 0.00 0.00 0.00 0.00 0.00 0.00 0.00 0.00 0.00 0.00 0.00 0.00 0.00 0.00 0.00 0.00 0.00 0.00 0.00 0.00
0.00 0.00 0.00 0.00 0.00 0.00 0.00 0.00 0.00 0.00 0.00 0.00 0.00 0.00 0.00 0.00 0.00 0.00 0.00 0.00 0.00 0.00 0.00 0.00 0.00 0.00 0.00 0.00 0.00 0.00 0.00 0.00 0.00 0.00 0.00 0.00 0.00 0.00 0.00 0.00 0.00 0.00 0.00 0.00 0.00 0.00 0.00 0.00 0.00 0.00 0.00 0.00 0.00 0.00 0.00 0.00 0.00 0.00 0.00 0.00 0.00 0.00 0.00 0.00 0.00 0.00 0.00 0.00 0.00 0.00 0.00 0.00 0.00 0.00
0.00 0.00 0.00 0.00 0.00 0.00 0.00 0.00 0.00 0.00 0.00 0.00 0.00 0.00 0.00 0.00 0.00 0.00 0.00 0.00 0.00 0.00 0.00 0.00 0.00 0.00 0.00 0.00 0.00 0.00 0.00 0.00 0.00 0.00 0.00 0.00 0.00 0.00 0.00 0.00 0.00 0.00 0.00 0.00 0.00 0.00 0.00 0.00 0.00 0.00 0.00 0.00 0.00 0.00 0.00 0.00 0.00 0.00 0.00 0.00 0.00 0.00 0.00 0.00 0.00 0.00 0.00 0.00 0.00 0.00 0.00 0.00 0.00 0.00
0.00 0.00 0.00 0.00 0.00 0.00 0.00 0.00 0.00 0.00 0.00 0.00 0.00 0.00 0.00 0.00 0.00 0.00 0.00 0.00 0.00 0.00 0.00 0.00 0.00 0.00 0.00 0.00 0.00 0.00 0.00 0.00 0.00 0.00 0.00 0.00 0.00 0.00 0.00 0.00 0.00 0.00 0.00 0.00 0.00 0.00 0.00 0.00 0.00 0.00 0.00 0.00 0.00 0.00 0.00 0.00 0.00 0.00 0.00 0.00 0.00 0.00 0.00 0.00 0.00 0.00 0.00 0.00 0.00 0.00 0.00 0.00 0.00 0.00
0.00 0.00 0.00 0.00 0.00 0.00 0.00 0.00 0.00 0.00 0.00 0.00 0.00 0.00 0.00 0.00 0.00 0.00 0.00 0.00 0.00 0.00 0.00 0.00 0.00 0.00 0.00 0.00 0.00 0.00 0.00 0.00 0.00 0.00 0.00 0.00 0.00 0.00 0.00 0.00 0.00 0.00 0.00 0.00 0.00 0.00 0.00 0.00 0.00 0.00 0.00 0.00 0.00 0.00 0.00 0.00 0.00 0.00 0.00 0.00 0.00 0.00 0.00 0.00 0.00 0.00 0.00 0.00 0.00 0.00 0.00 0.00 0.00 0.00
0.00 0.00 0.00 0.00 0.00 0.00 0.00 0.00 0.00 0.00 0.00 0.00 0.00 0.00 0.00 0.00 0.00 0.00 0.00 0.00 0.00 0.00 0.00 0.00 0.00 0.00 0.00 0.00 0.00 0.00 0.00 0.00 0.00 0.00 0.00 0.00 0.00 0.00 0.00 0.00 0.00 0.00 0.00 0.00 0.00 0.00 0.00 0.00 0.00 0.00 0.00 0.00 0.00 0.00 0.00 0.00 0.00 0.00 0.00 0.00 0.00 0.00 0.00 0.00 0.00 0.00 0.00 0.00 0.00 0.00 0.00 0.00 0.00 0.00
0.00 0.00 0.00 0.00 0.00 0.00 0.00 0.00 0.00 0.00 0.00 0.00 0.00 0.00 0.00 0.00 0.00 0.00 0.00 0.00 0.00 0.00 0.00 0.00 0.00 0.00 0.00 0.00 0.00 0.00 0.00 0.00 0.00 0.00 0.00 0.00 0.00 0.00 0.00 0.00 0.00 0.00 0.00 0.00 0.00 0.00 0.00 0.00 0.00 0.00 0.00 0.00 0.00 0.00 0.00 0.00 0.00 0.00 0.00 0.00 0.00 0.00 0.00 0.00 0.00 0.00 0.00 0.00 0.00 0.00 0.00 0.00 0.00 0.00
0.00 0.00 0.00 0.00 0.00 0.00 0.00 0.00 0.00 0.00 0.00 0.00 0.00 0.00 0.00 0.00 0.00 0.00 0.00 0.00 0.00 0.00 0.00 0.00 0.00 0.00 0.00 0.00 0.01 0.00 0.00 0.00 0.00 0.00 0.00 0.00 0.00 0.00 0.00 0.00 0.00 0.00 0.00 0.00 0.00 0.00 0.00 0.00 0.00 0.00 0.00 0.00 0.00 0.00 0.00 0.00 0.00 0.00 0.00 0.00 0.00 0.00 0.00 0.00 0.00 0.00 0.00 0.00 0.00 0.00 0.00 0.00 0.00 0.00
0.00 0.00 0.00 0.00 0.00 0.00 0.00 0.00 0.00 0.00 0.00 0.00 0.00 0.00 0.00 0.00 0.00 0.00 0.00 0.00 0.00 0.00 0.00 0.00 0.00 0.00 0.01 0.00 0.00 0.00 0.00 0.00 0.00 0.00 0.00 0.00 0.00 0.00 0.00 0.00 0.00 0.00 0.00 0.00 0.00 0.00 0.00 0.00 0.00 0.00 0.00 0.00 0.00 0.00 0.00 0.00 0.00 0.00 0.00 0.00 0.00 0.00 0.00 0.00 0.00 0.00 0.00 0.00 0.00 0.00 0.00 0.00 0.00 0.00
0.00 0.00 0.00 0.00 0.00 0.00 0.00 0.00 0.00 0.00 0.00 0.00 0.00 0.00 0.00 0.00 0.00 0.00 0.00 0.00 0.00 0.00 0.00 0.00 0.00 0.00 0.00 0.00 0.00 0.00 0.00 0.00 0.00 0.00 0.00 0.00 0.00 0.00 0.00 0.00 0.00 0.00 0.00 0.00 0.00 0.00 0.00 0.00 0.00 0.00 0.00 0.00 0.00 0.00 0.00 0.00 0.00 0.00 0.00 0.00 0.00 0.00 0.00 0.00 0.00 0.00 0.00 0.00 0.00 0.00 0.00 0.00 0.00 0.00
0.00 0.00 0.00 0.00 0.00 0.00 0.00 0.00 0.00 0.00 0.00 0.00 0.00 0.00 0.00 0.00 0.00 0.00 0.00 0.00 0.00 0.00 0.00 0.00 0.00 0.00 0.00 0.00 0.00 0.00 0.00 0.00 0.00 0.00 0.00 0.00 0.00 0.00 0.00 0.00 0.00 0.00 0.00 0.00 0.00 0.00 0.00 0.00 0.00 0.00 0.00 0.00 0.00 0.00 0.00 0.00 0.00 0.00 0.00 0.00 0.00 0.00 0.00 0.00 0.00 0.00 0.00 0.00 0.00 0.00 0.00 0.00 0.00 0.00
0.00 0.00 0.00 0.00 0.00 0.00 0.00 0.00 0.00 0.00 0.00 0.00 0.00 0.00 0.00 0.00 0.00 0.00 0.00 0.00 0.00 0.00 0.00 0.00 0.00 0.00 0.00 0.00 0.00 0.00 0.00 0.00 0.00 0.00 0.00 0.00 0.00 0.00 0.00 0.00 0.00 0.00 0.00 0.00 0.00 0.00 0.00 0.00 0.00 0.00 0.00 0.00 0.00 0.00 0.00 0.00 0.00 0.00 0.00 0.00 0.00 0.00 0.00 0.00 0.00 0.00 0.00 0.00 0.00 0.00 0.00 0.00 0.00 0.00
0.00 0.00 0.00 0.00 0.00 0.00 0.00 0.00 0.00 0.00 0.00 0.00 0.00 0.00 0.00 0.00 0.00 0.00 0.00 0.00 0.00 0.00 0.00 0.00 0.00 0.00 0.00 0.00 0.00 0.00 0.00 0.00 0.00 0.00 0.00 0.00 0.00 0.00 0.00 0.00 0.00 0.00 0.00 0.00 0.00 0.00 0.00 0.00 0.00 0.00 0.00 0.00 0.00 0.00 0.00 0.00 0.00 0.00 0.00 0.00 0.00 0.00 0.00 0.00 0.00 0.00 0.00 0.00 0.00 0.00 0.00 0.00 0.00 0.00
0.00 0.00 0.00 0.00 0.00 0.00 0.00 0.00 0.00 0.00 0.00 0.00 0.00 0.00 0.00 0.00 0.00 0.00 0.00 0.00 0.00 0.00 0.00 0.00 0.00 0.00 0.00 0.00 0.00 0.00 0.01 0.01 0.00 0.00 0.00 0.00 0.00 0.00 0.00 0.00 0.00 0.00 0.00 0.00 0.00 0.00 0.00 0.00 0.00 0.00 0.00 0.00 0.00 0.00 0.00 0.00 0.00 0.00 0.00 0.00 0.00 0.00 0.00 0.00 0.00 0.00 0.00 0.00 0.00 0.00 0.00 0.00 0.00 0.00
0.00 0.00 0.00 0.00 0.00 0.00 0.03 0.00 0.00 0.00 0.00 0.00 0.00 0.00 0.00 0.00 0.00 0.00 0.00 0.00 0.00 0.00 0.00 0.00 0.00 0.00 0.00 0.00 0.00 0.00 0.01 0.00 0.00 0.00 0.00 0.00 0.00 0.00 0.00 0.00 0.00 0.00 0.00 0.00 0.00 0.00 0.00 0.00 0.00 0.00 0.00 0.00 0.00 0.00 0.00 0.00 0.00 0.00 0.00 0.00 0.00 0.00 0.00 0.00 0.00 0.00 0.00 0.00 0.00 0.00 0.00 0.00 0.00 0.00
0.00 0.00 0.00 0.00 0.00 0.00 0.00 0.00 0.00 0.00 0.00 0.00 0.00 0.02 0.01 0.01 0.00 0.00 0.00 0.00 0.00 0.00 0.00 0.00 0.00 0.00 0.00 0.00 0.00 0.00 0.00 0.00 0.00 0.00 0.00 0.00 0.00 0.00 0.00 0.00 0.00 0.00 0.00 0.00 0.00 0.00 0.00 0.00 0.00 0.00 0.00 0.00 0.00 0.00 0.00 0.00 0.00 0.00 0.00 0.00 0.00 0.00 0.00 0.00 0.00 0.00 0.00 0.00 0.00 0.00 0.00 0.00 0.00 0.00
0.00 0.00 0.02 0.01 0.00 0.00 0.01 0.00 0.00 0.00 0.03 0.09 0.10 0.01 0.04 0.01 0.00 0.00 0.00 0.00 0.00 0.00 0.00 0.00 0.00 0.00 0.00 0.00 0.00 0.02 0.00 0.00 0.00 0.01 0.00 0.00 0.00 0.00 0.00 0.00 0.00 0.00 0.00 0.00 0.00 0.00 0.00 0.00 0.00 0.00 0.00 0.00 0.00 0.00 0.00 0.00 0.00 0.00 0.00 0.00 0.00 0.00 0.00 0.00 0.00 0.00 0.00 0.00 0.00 0.00 0.00 0.00 0.00 0.00
0.00 0.02 0.02 0.04 0.03 0.00 0.00 0.00 0.00 0.00 0.01 0.03 0.03 0.01 0.02 0.01 0.00 0.01 0.00 0.00 0.00 0.00 0.00 0.00 0.00 0.00 0.00 0.00 0.00 0.00 0.00 0.05 0.00 0.00 0.00 0.00 0.00 0.00 0.00 0.00 0.00 0.00 0.00 0.00 0.00 0.00 0.00 0.00 0.00 0.00 0.00 0.00 0.00 0.00 0.00 0.00 0.00 0.00 0.00 0.00 0.00 0.00 0.00 0.00 0.00 0.00 0.00 0.00 0.00 0.00 0.00 0.00 0.00 0.00
0.01 0.00 0.00 0.00 0.00 0.00 0.00 0.00 0.01 0.00 0.01 0.00 0.01 0.00 0.02 0.00 0.00 0.00 0.00 0.00 0.00 0.00 0.00 0.00 0.00 0.00 0.00 0.00 0.00 0.00 0.00 0.00 0.00 0.00 0.00 0.00 0.00 0.00 0.00 0.00 0.00 0.00 0.00 0.00 0.00 0.00 0.00 0.00 0.00 0.00 0.00 0.00 0.00 0.00 0.00 0.00 0.00 0.00 0.00 0.00 0.00 0.00 0.00 0.00 0.00 0.00 0.00 0.00 0.00 0.00 0.00 0.00 0.00 0.00
0.00 0.00 0.00 0.00 0.00 0.00 0.00 0.00 0.00 0.00 0.00 0.00 0.00 0.00 0.00 0.00 0.00 0.00 0.00 0.00 0.00 0.00 0.00 0.00 0.00 0.00 0.00 0.00 0.00 0.00 0.00 0.00 0.00 0.00 0.00 0.00 0.00 0.00 0.00 0.00 0.01 0.01 0.00 0.00 0.00 0.00 0.00 0.00 0.00 0.00 0.00 0.00 0.00 0.00 0.00 0.00 0.00 0.00 0.00 0.00 0.00 0.00 0.00 0.00 0.00 0.00 0.00 0.00 0.00 0.00 0.00 0.00 0.00 0.00
0.00 0.00 0.00 0.00 0.00 0.00 0.00 0.00 0.00 0.00 0.00 0.00 0.00 0.00 0.00 0.00 0.00 0.00 0.00 0.00 0.00 0.00 0.00 0.00 0.00 0.00 0.00 0.00 0.00 0.00 0.00 0.00 0.00 0.00 0.00 0.00 0.00 0.00 0.00 0.01 0.02 0.00 0.00 0.00 0.00 0.00 0.00 0.00 0.00 0.00 0.00 0.00 0.00 0.00 0.00 0.00 0.00 0.00 0.00 0.00 0.00 0.00 0.00 0.00 0.00 0.00 0.00 0.00 0.00 0.00 0.01 0.01 0.01 0.02
0.00 0.00 0.00 0.00 0.00 0.00 0.00 0.00 0.00 0.00 0.00 0.00 0.00 0.00 0.00 0.00 0.00 0.00 0.00 0.00 0.00 0.00 0.00 0.00 0.00 0.00 0.00 0.00 0.00 0.00 0.00 0.00 0.00 0.00 0.00 0.00 0.00 0.00 0.00 0.00 0.00 0.00 0.00 0.00 0.00 0.00 0.00 0.00 0.00 0.00 0.00 0.00 0.00 0.00 0.00 0.00 0.00 0.00 0.00 0.00 0.00 0.00 0.00 0.00 0.00 0.00 0.00 0.00 0.01 0.01 0.01 0.02 0.02 0.03
0.00 0.00 0.00 0.00 0.00 0.00 0.00 0.00 0.00 0.00 0.00 0.00 0.00 0.00 0.00 0.00 0.00 0.00 0.00 0.00 0.00 0.00 0.00 0.00 0.00 0.00 0.00 0.00 0.00 0.00 0.00 0.00 0.00 0.00 0.00 0.00 0.00 0.00 0.00 0.00 0.00 0.00 0.00 0.00 0.00 0.00 0.00 0.00 0.00 0.00 0.00 0.00 0.00 0.00 0.00 0.00 0.00 0.00 0.00 0.00 0.00 0.00 0.00 0.00 0.01 0.02 0.02 0.02 0.03 0.02 0.02 0.02 0.02 0.02
0.00 0.00 0.00 0.00 0.00 0.00 0.00 0.00 0.00 0.00 0.00 0.00 0.00 0.00 0.00 0.00 0.00 0.00 0.00 0.00 0.00 0.00 0.00 0.00 0.00 0.00 0.00 0.00 0.00 0.00 0.00 0.00 0.00 0.00 0.00 0.00 0.00 0.00 0.00 0.00 0.00 0.00 0.00 0.00 0.00 0.00 0.00 0.00 0.00 0.00 0.00 0.00 0.01 0.01 0.00 0.00 0.00 0.00 0.00 0.00 0.00 0.00 0.00 0.01 0.03 0.04 0.05 0.03 0.03 0.02 0.02 0.02 0.01 0.03
0.00 0.00 0.00 0.00 0.00 0.00 0.00 0.00 0.00 0.00 0.00 0.00 0.00 0.00 0.00 0.00 0.00 0.00 0.00 0.00 0.00 0.00 0.00 0.00 0.00 0.00 0.00 0.00 0.00 0.00 0.00 0.00 0.00 0.00 0.00 0.00 0.00 0.00 0.00 0.00 0.00 0.00 0.00 0.00 0.00 0.00 0.00 0.00 0.00 0.00 0.01 0.09 0.03 0.01 0.00 0.00 0.00 0.00 0.00 0.00 0.00 0.00 0.01 0.02 0.04 0.05 0.04 0.03 0.02 0.02 0.01 0.02 0.02 0.02
0.00 0.00 0.00 0.00 0.00 0.00 0.00 0.00 0.00 0.00 0.00 0.00 0.00 0.00 0.00 0.00 0.00 0.00 0.00 0.00 0.00 0.00 0.00 0.00 0.00 0.00 0.00 0.00 0.00 0.00 0.00 0.00 0.00 0.00 0.00 0.00 0.00 0.00 0.00 0.00 0.00 0.00 0.00 0.00 0.00 0.00 0.00 0.00 0.00 0.00 0.01 0.02 0.01 0.00 0.00 0.00 0.00 0.00 0.00 0.00 0.00 0.00 0.01 0.01 0.04 0.05 0.05 0.03 0.02 0.02 0.02 0.02 0.01 0.01
0.00 0.00 0.00 0.00 0.00 0.00 0.00 0.00 0.00 0.00 0.00 0.00 0.00 0.00 0.00 0.00 0.00 0.00 0.00 0.00 0.00 0.00 0.00 0.00 0.00 0.00 0.00 0.00 0.00 0.00 0.00 0.00 0.00 0.00 0.00 0.00 0.00 0.00 0.00 0.00 0.00 0.00 0.00 0.00 0.00 0.00 0.00 0.00 0.00 0.02 0.00 0.00 0.00 0.00 0.00 0.02 0.01 0.00 0.00 0.00 0.00 0.00 0.01 0.01 0.02 0.03 0.04 0.04 0.03 0.03 0.02 0.01 0.01 0.01
0.00 0.00 0.00 0.00 0.00 0.00 0.00 0.00 0.00 0.00 0.00 0.00 0.00 0.00 0.00 0.00 0.00 0.00 0.00 0.00 0.00 0.00 0.00 0.00 0.00 0.00 0.00 0.00 0.00 0.00 0.00 0.00 0.00 0.00 0.00 0.00 0.00 0.00 0.00 0.00 0.00 0.00 0.00 0.00 0.00 0.00 0.00 0.00 0.00 0.00 0.00 0.00 0.00 0.00 0.00 0.02 0.00 0.00 0.00 0.00 0.00 0.01 0.01 0.01 0.02 0.02 0.05 0.06 0.04 0.03 0.02 0.01 0.01 0.01
0.00 0.00 0.00 0.00 0.00 0.00 0.00 0.00 0.00 0.00 0.00 0.00 0.00 0.00 0.00 0.00 0.00 0.00 0.00 0.00 0.00 0.00 0.00 0.00 0.00 0.00 0.00 0.00 0.00 0.00 0.00 0.00 0.00 0.00 0.00 0.00 0.00 0.00 0.00 0.00 0.00 0.00 0.00 0.00 0.00 0.00 0.00 0.00 0.00 0.00 0.00 0.00 0.00 0.00 0.00 0.00 0.01 0.00 0.00 0.00 0.00 0.00 0.01 0.01 0.01 0.01 0.01 0.02 0.06 0.05 0.07 0.08 0.05 0.04
0.00 0.00 0.00 0.00 0.00 0.00 0.00 0.00 0.00 0.00 0.00 0.00 0.00 0.00 0.00 0.00 0.00 0.00 0.00 0.00 0.00 0.00 0.00 0.00 0.00 0.00 0.00 0.00 0.00 0.00 0.00 0.00 0.00 0.00 0.00 0.00 0.00 0.00 0.00 0.00 0.00 0.00 0.00 0.00 0.00 0.00 0.00 0.00 0.00 0.00 0.00 0.00 0.00 0.00 0.15 0.07 0.01 0.00 0.00 0.00 0.00 0.00 0.00 0.00 0.00 0.00 0.00 0.01 0.04 0.06 0.18 0.26 0.21 0.17
0.00 0.00 0.00 0.00 0.00 0.00 0.00 0.00 0.00 0.00 0.00 0.00 0.00 0.00 0.00 0.00 0.00 0.00 0.00 0.00 0.00 0.00 0.00 0.00 0.00 0.00 0.00 0.00 0.00 0.00 0.00 0.00 0.00 0.00 0.00 0.00 0.00 0.00 0.00 0.00 0.00 0.00 0.00 0.00 0.00 0.00 0.00 0.00 0.00 0.00 0.00 0.00 0.00 0.00 0.02 0.03 0.00 0.00 0.00 0.00 0.00 0.00 0.00 0.00 0.00 0.00 0.00 0.02 0.03 0.03 0.02 0.11 0.34 0.20
0.00 0.00 0.00 0.00 0.00 0.00 0.00 0.00 0.00 0.00 0.00 0.00 0.00 0.00 0.00 0.00 0.00 0.00 0.00 0.00 0.00 0.00 0.00 0.00 0.00 0.00 0.00 0.00 0.00 0.00 0.00 0.00 0.00 0.00 0.00 0.00 0.00 0.00 0.00 0.00 0.00 0.00 0.00 0.00 0.00 0.00 0.00 0.00 0.00 0.00 0.00 0.00 0.00 0.00 0.00 0.00 0.00 0.00 0.00 0.00 0.00 0.00 0.00 0.00 0.00 0.00 0.00 0.00 0.03 0.06 0.02 0.02 0.10 0.37
0.00 0.00 0.00 0.00 0.00 0.00 0.00 0.00 0.00 0.00 0.00 0.00 0.00 0.00 0.00 0.00 0.00 0.00 0.00 0.00 0.00 0.00 0.00 0.00 0.00 0.00 0.00 0.00 0.00 0.00 0.00 0.00 0.00 0.00 0.00 0.00 0.00 0.00 0.00 0.00 0.00 0.00 0.00 0.00 0.00 0.00 0.00 0.00 0.00 0.00 0.00 0.00 0.00 0.00 0.00 0.00 0.00 0.00 0.00 0.00 0.00 0.00 0.00 0.00 0.00 0.00 0.00 0.00 0.01 0.05 0.06 0.04 0.04 0.02
0.00 0.00 0.00 0.00 0.00 0.00 0.00 0.00 0.00 0.00 0.00 0.00 0.00 0.00 0.00 0.00 0.00 0.00 0.00 0.00 0.00 0.00 0.00 0.00 0.00 0.00 0.00 0.00 0.00 0.00 0.00 0.00 0.00 0.00 0.00 0.00 0.00 0.00 0.00 0.00 0.00 0.00 0.00 0.00 0.00 0.00 0.00 0.00 0.00 0.00 0.00 0.00 0.00 0.00 0.00 0.00 0.00 0.01 0.00 0.01 0.00 0.00 0.00 0.00 0.00 0.00 0.00 0.01 0.01 0.02 0.02 0.03 0.02 0.02
0.00 0.00 0.00 0.00 0.00 0.00 0.00 0.00 0.00 0.00 0.00 0.00 0.00 0.00 0.00 0.00 0.00 0.00 0.00 0.00 0.00 0.00 0.00 0.00 0.00 0.00 0.00 0.00 0.00 0.00 0.00 0.00 0.00 0.00 0.00 0.00 0.00 0.00 0.00 0.00 0.00 0.00 0.00 0.00 0.00 0.00 0.00 0.00 0.00 0.00 0.00 0.00 0.00 0.00 0.01 0.01 0.00 0.00 0.00 0.00 0.00 0.00 0.00 0.00 0.01 0.01 0.01 0.01 0.02 0.00 0.00 0.00 0.01 0.01
0.00 0.00 0.00 0.00 0.00 0.00 0.00 0.00 0.00 0.00 0.00 0.00 0.00 0.00 0.00 0.00 0.00 0.00 0.00 0.00 0.00 0.00 0.00 0.00 0.00 0.00 0.00 0.00 0.00 0.00 0.00 0.00 0.00 0.00 0.00 0.00 0.00 0.00 0.00 0.00 0.00 0.00 0.00 0.00 0.00 0.00 0.00 0.00 0.00 0.00 0.00 0.00 0.02 0.03 0.03 0.03 0.00 0.00 0.00 0.00 0.00 0.00 0.00 0.01 0.02 0.01 0.02 0.02 0.01 0.00 0.00 0.00 0.00 0.00
0.00 0.00 0.00 0.00 0.00 0.00 0.00 0.00 0.00 0.00 0.00 0.00 0.00 0.00 0.00 0.00 0.00 0.00 0.00 0.00 0.00 0.00 0.00 0.00 0.00 0.00 0.00 0.00 0.00 0.00 0.00 0.00 0.00 0.00 0.00 0.00 0.00 0.00 0.00 0.00 0.00 0.00 0.00 0.00 0.00 0.00 0.00 0.00 0.00 0.00 0.00 0.00 0.01 0.06 0.03 0.01 0.00 0.00 0.00 0.00 0.00 0.00 0.00 0.01 0.02 0.04 0.05 0.03 0.01 0.00 0.01 0.00 0.00 0.00
0.00 0.00 0.00 0.00 0.00 0.00 0.00 0.00 0.00 0.00 0.00 0.00 0.00 0.00 0.00 0.00 0.00 0.00 0.00 0.00 0.00 0.00 0.00 0.00 0.00 0.00 0.00 0.00 0.00 0.00 0.00 0.00 0.00 0.00 0.00 0.00 0.00 0.00 0.00 0.00 0.00 0.00 0.00 0.00 0.00 0.00 0.00 0.00 0.00 0.00 0.00 0.00 0.00 0.00 0.00 0.00 0.00 0.00 0.00 0.00 0.00 0.00 0.00 0.00 0.01 0.03 0.07 0.04 0.02 0.01 0.00 0.02 0.01 0.00
0.00 0.00 0.00 0.00 0.00 0.00 0.00 0.00 0.00 0.00 0.00 0.00 0.00 0.00 0.00 0.00 0.00 0.00 0.00 0.00 0.00 0.00 0.00 0.00 0.00 0.00 0.00 0.00 0.00 0.00 0.00 0.00 0.00 0.00 0.00 0.00 0.00 0.00 0.00 0.00 0.00 0.00 0.00 0.00 0.00 0.00 0.00 0.00 0.00 0.00 0.00 0.00 0.00 0.00 0.00 0.01 0.00 0.00 0.00 0.00 0.00 0.00 0.00 0.00 0.00 0.01 0.03 0.07 0.07 0.05 0.03 0.02 0.01 0.00
0.00 0.00 0.00 0.00 0.00 0.00 0.00 0.00 0.00 0.00 0.00 0.00 0.00 0.00 0.00 0.00 0.00 0.00 0.00 0.00 0.00 0.00 0.00 0.00 0.00 0.00 0.00 0.00 0.00 0.00 0.00 0.00 0.00 0.00 0.00 0.00 0.00 0.00 0.00 0.00 0.00 0.00 0.00 0.00 0.00 0.00 0.00 0.00 0.00 0.00 0.00 0.00 0.00 0.00 0.00 0.00 0.00 0.00 0.00 0.00 0.00 0.00 0.00 0.00 0.00 0.00 0.02 0.02 0.03 0.04 0.05 0.08 0.09 0.08
0.00 0.00 0.00 0.00 0.00 0.00 0.00 0.00 0.00 0.00 0.00 0.00 0.00 0.00 0.00 0.00 0.00 0.00 0.00 0.00 0.00 0.00 0.00 0.00 0.00 0.00 0.00 0.00 0.00 0.00 0.00 0.00 0.00 0.00 0.00 0.00 0.00 0.00 0.00 0.00 0.00 0.00 0.00 0.00 0.00 0.00 0.00 0.00 0.00 0.00 0.00 0.00 0.00 0.00 0.00 0.00 0.00 0.00 0.00 0.00 0.00 0.00 0.00 0.00 0.00 0.00 0.00 0.00 0.00 0.00 0.00 0.02 0.07 0.15
0.00 0.00 0.00 0.00 0.00 0.00 0.00 0.00 0.00 0.00 0.00 0.00 0.00 0.00 0.00 0.00 0.00 0.00 0.00 0.00 0.00 0.00 0.00 0.00 0.00 0.00 0.00 0.00 0.00 0.00 0.00 0.00 0.00 0.00 0.00 0.00 0.00 0.00 0.00 0.00 0.00 0.00 0.00 0.00 0.00 0.00 0.00 0.00 0.00 0.00 0.00 0.00 0.00 0.00 0.00 0.00 0.00 0.00 0.00 0.00 0.00 0.00 0.00 0.00 0.00 0.00 0.01 0.01 0.00 0.01 0.01 0.02 0.02 0.01
MSLP
1018.35 1018.40 1018.47 1018.64 1018.72 1018.76 1018.67 1018.76 1018.79 1018.84 1018.99 1019.16 1019.35 1019.55 1020.20 1020.64 1021.43 1022.08 1022.08 1021.59 1021.35 1020.32 1019.88 1020.47 1019.43 1018.84 1018.84 1018.84 1018.72 1018.79 1018.76 1018.59 1018.52 1018.55 1018.64 1018.76 1018.79 1018.76 1018.76 1018.79 1018.79 1018.76 1018.72 1018.72 1018.76 1018.79 1018.88 1018.96 1019.03 1019.08 1019.08 1019.08 1019.08 1019.03 1019.03 1019.03 1019.03 1019.03 1019.03 1018.99 1018.99 1018.96 1018.99 1018.99 1018.99 1018.99 1018.96 1018.96 1018.91 1018.84 1018.79 1018.76 1018.67 1018.67
1018.16 1018.32 1018.40 1018.47 1018.64 1018.52 1018.67 1018.76 1018.67 1018.67 1018.79 1018.99 1019.16 1019.40 1019.59 1019.84 1020.76 1021.16 1021.84 1021.72 1020.84 1020.64 1019.91 1019.72 1019.84 1019.08 1018.96 1018.88 1018.84 1018.72 1018.64 1018.43 1018.32 1018.35 1018.43 1018.52 1018.52 1018.47 1018.47 1018.43 1018.43 1018.40 1018.35 1018.35 1018.35 1018.43 1018.52 1018.64 1018.72 1018.76 1018.79 1018.84 1018.79 1018.76 1018.76 1018.76 1018.76 1018.72 1018.72 1018.67 1018.64 1018.64 1018.59 1018.64 1018.67 1018.67 1018.67 1018.64 1018.64 1018.64 1018.55 1018.52 1018.43 1018.40
1018.08 1018.32 1018.43 1018.35 1018.47 1018.35 1018.47 1018.59 1018.59 1018.55 1018.67 1018.88 1018.99 1019.20 1019.32 1019.59 1019.88 1020.40 1020.88 1021.72 1020.55 1019.91 1020.35 1019.72 1019.16 1019.23 1019.03 1018.84 1018.84 1018.76 1018.64 1018.43 1018.28 1018.23 1018.20 1018.11 1018.03 1017.99 1017.99 1017.96 1017.91 1017.96 1017.99 1017.99 1017.99 1018.08 1018.16 1018.28 1018.35 1018.43 1018.47 1018.47 1018.47 1018.43 1018.43 1018.40 1018.40 1018.40 1018.35 1018.32 1018.28 1018.28 1018.28 1018.28 1018.28 1018.32 1018.32 1018.32 1018.28 1018.28 1018.28 1018.23 1018.20 1018.16
1017.91 1018.11 1018.28 1018.28 1018.28 1018.28 1018.35 1018.47 1018.52 1018.59 1018.59 1018.67 1018.91 1019.08 1019.28 1019.47 1019.59 1019.91 1020.52 1020.99 1020.99 1019.84 1019.79 1019.59 1019.23 1018.91 1018.91 1018.72 1018.84 1018.72 1018.52 1018.23 1018.11 1018.08 1017.99 1017.88 1017.79 1017.79 1017.76 1017.64 1017.59 1017.55 1017.52 1017.55 1017.59 1017.67 1017.76 1017.84 1017.91 1017.99 1018.03 1018.03 1018.03 1018.03 1017.99 1017.99 1017.96 1017.96 1017.96 1017.96 1017.96 1017.96 1017.96 1017.91 1017.88 1017.88 1017.91 1017.91 1017.91 1017.91 1017.91 1017.88 1017.88 1017.84
1017.72 1017.88 1018.08 1018.08 1017.99 1017.96 1018.20 1018.32 1018.35 1018.43 1018.55 1018.67 1018.79 1018.91 1019.11 1019.40 1019.52 1019.79 1020.20 1020.72 1020.67 1020.03 1019.28 1019.28 1019.16 1018.76 1018.67 1018.84 1018.55 1018.72 1018.52 1018.35 1018.11 1017.96 1017.88 1017.79 1017.79 1017.72 1017.67 1017.52 1017.35 1017.28 1017.23 1017.20 1017.20 1017.28 1017.40 1017.43 1017.52 1017.52 1017.52 1017.52 1017.55 1017.59 1017.64 1017.64 1017.59 1017.59 1017.59 1017.59 1017.59 1017.55 1017.52 1017.52 1017.52 1017.52 1017.47 1017.52 1017.52 1017.52 1017.47 1017.47 1017.47 1017.47
1017.47 1017.72 1017.96 1018.03 1017.96 1017.91 1018.03 1018.11 1018.28 1018.32 1018.52 1018.64 1018.79 1018.88 1018.99 1019.28 1019.40 1019.23 1019.79 1020.11 1020.32 1020.43 1019.59 1019.35 1018.88 1018.88 1018.55 1019.03 1018.32 1018.55 1018.55 1018.32 1017.99 1017.99 1017.79 1017.64 1017.59 1017.59 1017.43 1017.40 1017.28 1017.16 1017.08 1016.99 1016.99 1016.96 1016.99 1017.03 1017.03 1017.03 1017.08 1017.11 1017.20 1017.23 1017.20 1017.20 1017.20 1017.20 1017.16 1017.16 1017.16 1017.11 1017.08 1017.11 1017.11 1017.11 1017.08 1017.03 1017.03 1017.03 1017.03 1017.03 1017.08 1017.08
1017.28 1017.55 1017.72 1017.79 1017.76 1017.79 1017.99 1018.03 1018.03 1017.99 1018.20 1018.28 1018.47 1018.64 1018.72 1018.99 1019.08 1019.11 1019.20 1019.64 1020.08 1019.99 1019.79 1019.20 1019.20 1018.96 1018.72 1018.72 1018.40 1018.16 1018.08 1017.91 1017.79 1017.88 1017.76 1017.59 1017.43 1017.28 1017.20 1017.20 1017.08 1016.91 1016.88 1016.79 1016.79 1016.79 1016.76 1016.72 1016.72 1016.67 1016.67 1016.67 1016.72 1016.72 1016.67 1016.67 1016.67 1016.72 1016.72 1016.72 1016.72 1016.72 1016.67 1016.67 1016.67 1016.64 1016.59 1016.55 1016.55 1016.59 1016.64 1016.67 1016.72 1016.67
1017.16 1017.32 1017.52 1017.52 1017.52 1017.59 1017.84 1017.88 1017.84 1017.84 1017.88 1018.08 1018.20 1018.32 1018.35 1018.52 1018.76 1018.76 1018.79 1018.88 1019.32 1019.52 1019.79 1019.23 1019.16 1018.72 1018.79 1018.43 1018.08 1017.96 1017.84 1017.84 1017.76 1017.59 1017.43 1017.23 1017.23 1017.11 1016.99 1016.99 1016.96 1016.72 1016.64 1016.59 1016.55 1016.52 1016.47 1016.43 1016.40 1016.32 1016.32 1016.28 1016.28 1016.23 1016.20 1016.20 1016.23 1016.28 1016.32 1016.32 1016.32 1016.28 1016.23 1016.23 1016.20 1016.16 1016.11 1016.11 1016.11 1016.16 1016.23 1016.32 1016.32 1016.32
1016.96 1017.11 1017.23 1017.23 1017.23 1017.40 1017.64 1017.64 1017.67 1017.67 1017.79 1017.79 1017.96 1018.08 1018.03 1018.11 1018.20 1018.35 1018.52 1018.72 1018.88 1019.28 1019.43 1019.16 1018.67 1018.55 1018.55 1018.28 1018.03 1017.88 1018.11 1017.76 1017.52 1017.28 1017.32 1017.20 1017.03 1016.96 1016.84 1016.76 1016.64 1016.52 1016.40 1016.35 1016.32 1016.28 1016.23 1016.16 1016.11 1016.03 1015.96 1015.91 1015.88 1015.88 1015.84 1015.84 1015.84 1015.79 1015.79 1015.79 1015.79 1015.79 1015.76 1015.76 1015.76 1015.72 1015.67 1015.67 1015.67 1015.76 1015.84 1015.88 1015.91 1015.91
1016.52 1016.76 1016.91 1016.96 1017.03 1017.23 1017.43 1017.55 1017.47 1017.52 1017.55 1017.64 1017.88 1017.99 1018.03 1018.03 1018.11 1018.32 1018.43 1018.52 1018.72 1018.84 1018.91 1018.99 1018.88 1018.52 1018.64 1018.40 1018.08 1017.67 1017.76 1017.91 1017.79 1017.47 1017.20 1017.03 1016.91 1016.96 1016.96 1016.72 1016.52 1016.32 1016.23 1016.23 1016.16 1016.08 1015.99 1015.91 1015.79 1015.72 1015.64 1015.59 1015.55 1015.55 1015.52 1015.47 1015.47 1015.43 1015.43 1015.40 1015.32 1015.23 1015.23 1015.23 1015.28 1015.28 1015.28 1015.28 1015.28 1015.32 1015.32 1015.35 1015.40 1015.43
1016.11 1016.32 1016.52 1016.67 1016.76 1016.96 1017.11 1017.32 1017.40 1017.43 1017.43 1017.52 1017.67 1017.67 1017.84 1017.91 1018.08 1018.23 1018.32 1018.43 1018.59 1018.72 1018.84 1018.84 1018.76 1018.67 1018.23 1018.20 1018.20 1017.47 1017.32 1017.40 1017.43 1017.55 1017.47 1017.35 1016.91 1016.84 1016.88 1016.88 1016.43 1016.20 1016.11 1015.96 1015.88 1015.84 1015.76 1015.59 1015.47 1015.32 1015.23 1015.23 1015.20 1015.11 1015.08 1015.03 1015.08 1015.08 1015.08 1015.03 1014.99 1014.96 1014.96 1014.91 1014.91 1014.91 1014.91 1014.91 1014.88 1014.84 1014.84 1014.88 1014.91 1014.91
1015.84 1015.99 1016.11 1016.28 1016.40 1016.52 1016.72 1016.88 1016.99 1017.08 1017.20 1017.16 1017.35 1017.32 1017.47 1017.67 1017.88 1017.96 1018.03 1018.28 1018.40 1018.55 1018.64 1018.67 1018.59 1018.43 1018.32 1017.99 1017.67 1017.43 1017.47 1017.59 1017.47 1017.23 1017.35 1017.52 1017.16 1016.88 1016.72 1016.67 1016.72 1016.28 1016.11 1016.16 1015.91 1015.67 1015.52 1015.40 1015.20 1015.03 1014.96 1014.88 1014.79 1014.76 1014.76 1014.72 1014.67 1014.59 1014.55 1014.52 1014.47 1014.47 1014.52 1014.55 1014.59 1014.55 1014.52 1014.43 1014.35 1014.35 1014.32 1014.28 1014.23 1014.20
1015.67 1015.72 1015.79 1015.88 1016.03 1016.16 1016.28 1016.35 1016.47 1016.55 1016.55 1016.79 1017.16 1017.28 1017.32 1017.47 1017.59 1017.76 1017.91 1018.08 1018.23 1018.35 1018.52 1018.55 1018.35 1018.40 1018.32 1018.08 1017.99 1017.96 1017.88 1017.88 1017.67 1017.08 1016.96 1017.11 1016.96 1016.84 1016.79 1016.52 1016.28 1016.16 1016.20 1015.99 1015.84 1015.72 1015.47 1015.32 1015.16 1014.99 1014.96 1014.76 1014.55 1014.47 1014.43 1014.35 1014.32 1014.20 1014.20 1014.16 1014.16 1014.11 1014.11 1014.11 1014.11 1014.03 1013.96 1013.91 1013.88 1013.79 1013.76 1013.76 1013.76 1013.72
1015.55 1015.47 1015.52 1015.59 1015.67 1015.88 1015.99 1016.11 1016.16 1016.28 1016.32 1016.32 1016.52 1016.88 1017.16 1017.32 1017.55 1017.72 1017.91 1018.08 1018.20 1018.35 1018.47 1018.35 1018.28 1018.40 1018.28 1017.99 1017.84 1017.79 1017.43 1017.16 1016.99 1017.03 1016.99 1017.16 1016.96 1016.91 1016.91 1016.64 1016.23 1015.79 1015.88 1015.96 1015.96 1015.64 1015.28 1015.20 1015.03 1014.96 1014.91 1014.64 1014.47 1014.40 1014.28 1014.16 1014.03 1013.96 1013.88 1013.76 1013.72 1013.67 1013.59 1013.55 1013.47 1013.43 1013.40 1013.32 1013.32 1013.40 1013.43 1013.35 1013.28 1013.20
1015.52 1015.40 1015.35 1015.43 1015.52 1015.67 1015.84 1015.91 1016.03 1016.23 1016.35 1016.40 1016.43 1016.52 1016.59 1016.76 1017.08 1017.55 1017.91 1017.99 1018.08 1018.23 1018.23 1018.03 1018.08 1018.08 1017.99 1017.67 1017.43 1017.40 1017.23 1017.08 1016.99 1016.99 1016.96 1017.03 1016.99 1017.16 1017.35 1017.32 1016.28 1015.59 1015.59 1015.79 1015.84 1015.52 1015.03 1014.96 1015.08 1014.96 1014.84 1014.52 1014.32 1014.08 1013.96 1013.76 1013.67 1013.59 1013.52 1013.35 1013.20 1013.11 1013.08 1012.99 1012.91 1012.96 1013.08 1013.16 1013.03 1012.91 1012.79 1012.67 1012.59 1012.47
1015.23 1015.28 1015.35 1015.40 1015.43 1015.59 1015.76 1015.96 1016.11 1016.28 1016.35 1016.32 1016.28 1016.35 1016.47 1016.64 1016.76 1016.88 1017.23 1017.55 1017.79 1017.84 1017.96 1017.96 1017.79 1017.67 1017.67 1017.43 1017.28 1017.23 1017.11 1016.99 1016.91 1016.84 1016.84 1016.91 1016.96 1017.03 1017.08 1016.91 1016.79 1015.64 1015.35 1015.55 1015.67 1015.43 1014.96 1014.79 1014.91 1014.91 1014.59 1014.23 1014.03 1013.76 1013.52 1013.40 1013.32 1013.23 1013.11 1012.96 1012.79 1012.72 1012.72 1012.76 1012.76 1012.67 1012.59 1012.52 1012.43 1012.32 1012.20 1012.03 1011.91 1011.84
1014.91 1015.03 1015.20 1015.40 1015.47 1015.52 1015.64 1015.91 1016.03 1016.16 1016.20 1016.20 1016.35 1016.55 1016.72 1016.76 1016.72 1016.76 1016.79 1016.88 1017.03 1017.11 1017.52 1017.64 1017.52 1017.35 1017.23 1017.28 1017.03 1016.79 1016.72 1016.55 1016.84 1016.76 1016.84 1016.72 1016.67 1016.64 1016.72 1016.52 1016.20 1015.64 1015.23 1015.52 1015.59 1015.47 1014.84 1014.72 1014.72 1014.76 1014.23 1013.99 1013.67 1013.40 1013.16 1012.99 1012.91 1012.79 1012.72 1012.67 1012.76 1012.72 1012.59 1012.47 1012.40 1012.32 1012.16 1011.99 1011.88 1011.76 1011.64 1011.52 1011.40 1011.28
1014.55 1014.67 1014.91 1015.23 1015.52 1015.52 1015.55 1015.55 1015.76 1015.91 1016.08 1016.32 1016.43 1016.47 1016.40 1016.40 1016.35 1016.35 1016.40 1016.52 1016.72 1016.91 1017.08 1017.16 1017.23 1016.67 1016.59 1016.76 1016.47 1016.23 1016.23 1016.55 1016.72 1016.72 1016.67 1016.47 1016.52 1016.52 1016.35 1015.88 1015.79 1015.35 1015.20 1015.59 1015.52 1015.47 1014.91 1014.47 1014.47 1014.40 1013.84 1013.52 1013.32 1013.08 1012.88 1012.79 1012.76 1012.76 1012.67 1012.55 1012.47 1012.40 1012.32 1012.16 1011.99 1011.79 1011.64 1011.47 1011.32 1011.20 1011.11 1010.99 1010.91 1010.84
1014.08 1014.32 1014.52 1014.79 1015.11 1015.35 1015.40 1015.35 1015.47 1015.76 1015.99 1016.08 1016.20 1016.32 1016.43 1016.35 1016.23 1016.16 1016.08 1016.16 1016.28 1016.47 1016.59 1016.59 1016.52 1016.28 1016.03 1016.03 1015.99 1015.96 1015.99 1016.08 1016.08 1016.11 1016.20 1016.08 1015.99 1015.88 1015.72 1015.72 1015.47 1015.23 1014.88 1014.91 1015.35 1015.47 1014.59 1014.16 1014.23 1013.96 1013.59 1013.32 1013.20 1012.99 1012.88 1012.76 1012.64 1012.52 1012.40 1012.28 1012.08 1011.91 1011.76 1011.55 1011.35 1011.20 1011.08 1010.91 1010.72 1010.59 1010.47 1010.40 1010.35 1010.28
1013.79 1013.96 1014.23 1014.55 1014.91 1015.08 1015.20 1015.16 1015.16 1015.43 1015.67 1015.91 1016.16 1016.35 1016.35 1016.28 1016.20 1015.99 1015.67 1015.59 1015.67 1015.84 1015.88 1015.88 1015.84 1015.84 1015.88 1015.79 1015.72 1015.76 1015.76 1015.72 1015.72 1015.67 1015.67 1015.76 1015.84 1015.96 1016.03 1015.91 1015.32 1015.28 1014.52 1014.52 1014.88 1014.88 1014.47 1013.99 1014.03 1013.72 1013.40 1013.28 1013.23 1012.91 1012.67 1012.47 1012.32 1012.16 1011.99 1011.84 1011.64 1011.47 1011.32 1011.11 1010.91 1010.76 1010.59 1010.43 1010.23 1010.08 1009.96 1009.91 1009.79 1009.72
1013.72 1013.91 1014.20 1014.64 1014.84 1014.79 1014.84 1014.84 1015.08 1015.35 1015.59 1015.91 1016.08 1016.20 1016.28 1016.28 1016.16 1015.88 1015.59 1015.59 1015.55 1015.55 1015.64 1015.72 1015.72 1015.64 1015.59 1015.64 1015.64 1015.59 1015.52 1015.47 1015.47 1015.76 1016.03 1015.99 1015.76 1015.99 1016.08 1015.67 1015.47 1015.11 1014.64 1014.20 1014.23 1014.43 1014.43 1013.96 1013.91 1013.84 1013.55 1013.32 1013.16 1012.84 1012.55 1012.28 1012.08 1011.84 1011.64 1011.47 1011.32 1011.11 1010.91 1010.72 1010.55 1010.35 1010.16 1009.96 1009.79 1009.64 1009.52 1009.43 1009.35 1009.16
1013.59 1013.67 1013.79 1014.08 1014.28 1014.52 1014.64 1014.76 1014.99 1015.28 1015.47 1015.84 1016.03 1016.23 1016.40 1016.32 1016.16 1016.03 1015.88 1015.79 1015.76 1015.67 1015.55 1015.55 1015.55 1015.52 1015.43 1015.43 1015.43 1015.40 1015.35 1015.32 1015.47 1015.79 1015.99 1015.47 1015.43 1015.72 1015.67 1015.59 1015.28 1014.88 1014.64 1014.32 1014.11 1014.47 1014.35 1014.08 1013.96 1013.76 1013.28 1013.16 1012.84 1012.64 1012.40 1012.08 1011.76 1011.47 1011.32 1011.11 1010.96 1010.76 1010.55 1010.40 1010.23 1009.99 1009.76 1009.52 1009.35 1009.16 1009.03 1008.88 1008.76 1008.52
1013.47 1013.64 1013.64 1013.76 1013.99 1014.20 1014.43 1014.67 1014.88 1015.03 1015.28 1015.59 1015.84 1015.96 1016.08 1016.16 1016.20 1016.11 1016.16 1016.16 1016.08 1015.91 1015.79 1015.67 1015.59 1015.52 1015.35 1015.23 1015.23 1015.16 1015.08 1014.99 1014.99 1015.23 1015.28 1015.11 1015.35 1015.52 1015.43 1015.40 1015.35 1015.32 1014.84 1014.28 1014.08 1014.47 1014.16 1014.11 1013.76 1013.79 1013.43 1013.20 1012.64 1012.40 1012.03 1011.79 1011.47 1011.20 1010.99 1010.79 1010.55 1010.32 1010.16 1009.99 1009.76 1009.55 1009.28 1009.08 1008.88 1008.67 1008.52 1008.35 1008.23 1007.96
1013.59 1013.64 1013.76 1013.76 1013.88 1014.08 1014.28 1014.52 1014.72 1014.96 1015.16 1015.40 1015.55 1015.55 1015.79 1016.03 1016.08 1016.11 1016.20 1016.16 1016.08 1016.11 1015.99 1015.88 1015.72 1015.59 1015.43 1015.32 1015.20 1015.08 1014.96 1014.84 1014.72 1014.67 1014.79 1014.96 1015.16 1015.35 1015.40 1015.32 1015.28 1015.35 1014.88 1014.23 1014.11 1014.43 1014.08 1013.96 1013.79 1013.67 1013.72 1013.59 1012.84 1012.08 1011.67 1011.43 1011.16 1010.91 1010.72 1010.55 1010.40 1009.91 1009.67 1009.52 1009.28 1009.03 1008.79 1008.55 1008.32 1008.16 1007.96 1007.72 1007.59 1007.40
1013.64 1013.79 1013.79 1013.84 1013.84 1013.96 1014.20 1014.52 1014.79 1014.99 1015.20 1015.32 1015.35 1015.43 1015.59 1015.72 1015.91 1016.16 1016.16 1016.11 1015.99 1015.99 1015.88 1015.76 1015.67 1015.59 1015.47 1015.35 1015.23 1015.08 1014.91 1014.76 1014.72 1014.72 1014.67 1014.72 1014.76 1014.91 1015.03 1015.08 1014.99 1014.91 1014.55 1014.16 1013.96 1014.16 1014.11 1013.84 1013.64 1013.35 1013.20 1013.08 1012.55 1012.28 1011.55 1011.23 1010.67 1010.55 1010.35 1010.28 1010.08 1009.59 1009.40 1009.16 1008.91 1008.59 1008.23 1007.99 1007.76 1007.47 1007.23 1006.96 1006.72 1006.64
1013.43 1013.40 1013.47 1013.64 1013.64 1013.91 1014.32 1014.64 1014.84 1015.11 1015.32 1015.32 1015.28 1015.47 1015.64 1015.91 1016.03 1016.03 1016.03 1015.99 1015.91 1015.88 1015.88 1015.88 1015.79 1015.67 1015.59 1015.47 1015.32 1015.11 1014.96 1014.84 1014.72 1014.64 1014.55 1014.47 1014.47 1014.43 1014.43 1014.47 1014.55 1014.64 1014.32 1013.72 1013.64 1013.76 1013.84 1013.67 1013.35 1013.20 1012.91 1012.79 1012.16 1011.99 1011.84 1011.32 1010.64 1010.20 1010.08 1009.84 1009.64 1009.28 1009.08 1008.88 1008.64 1008.28 1007.88 1007.52 1007.20 1006.91 1006.59 1006.35 1006.08 1005.79
1012.96 1012.91 1013.11 1013.23 1013.47 1013.91 1014.28 1014.55 1014.91 1015.11 1015.16 1015.20 1015.28 1015.55 1015.76 1015.88 1015.99 1015.99 1015.91 1015.88 1015.91 1015.99 1015.96 1015.91 1015.88 1015.72 1015.59 1015.47 1015.32 1015.08 1014.96 1014.79 1014.67 1014.59 1014.52 1014.35 1014.23 1014.08 1013.96 1013.84 1013.84 1013.88 1013.64 1013.40 1013.28 1013.28 1013.43 1013.32 1012.84 1012.88 1012.76 1012.43 1012.35 1011.96 1011.76 1011.40 1010.47 1009.84 1009.72 1009.52 1009.23 1008.91 1008.64 1008.52 1008.28 1007.84 1007.35 1007.03 1006.67 1006.28 1006.03 1005.76 1005.43 1005.03
1012.52 1012.76 1012.91 1013.11 1013.47 1013.91 1014.28 1014.59 1014.84 1014.88 1014.91 1015.03 1015.32 1015.55 1015.67 1015.79 1015.91 1015.91 1015.91 1015.91 1015.91 1015.91 1015.91 1015.88 1015.79 1015.55 1015.28 1015.20 1015.08 1014.91 1014.79 1014.67 1014.55 1014.47 1014.32 1014.20 1014.03 1013.88 1013.72 1013.55 1013.47 1013.40 1013.32 1013.20 1012.99 1012.88 1012.84 1012.84 1012.47 1012.16 1012.11 1012.11 1012.11 1011.99 1011.47 1010.64 1010.32 1009.91 1009.64 1008.99 1008.79 1008.43 1008.16 1008.16 1007.91 1007.43 1006.96 1006.59 1006.28 1005.91 1005.64 1005.16 1004.67 1004.32
1012.20 1012.35 1012.64 1013.20 1013.67 1014.08 1014.47 1014.76 1014.79 1014.84 1014.99 1015.20 1015.40 1015.55 1015.64 1015.76 1015.79 1015.67 1015.72 1015.76 1015.84 1015.88 1015.76 1015.59 1015.47 1015.35 1015.11 1014.88 1014.76 1014.72 1014.64 1014.47 1014.35 1014.32 1014.20 1013.99 1013.88 1013.67 1013.52 1013.40 1013.32 1013.16 1012.99 1012.72 1012.59 1012.43 1012.35 1012.28 1012.08 1011.72 1011.59 1011.52 1011.55 1011.20 1011.08 1010.59 1010.16 1009.64 1009.23 1008.96 1008.55 1008.03 1007.88 1007.67 1007.43 1007.20 1006.79 1006.40 1005.99 1005.59 1005.20 1004.79 1004.20 1003.72
1012.32 1012.59 1013.08 1013.55 1014.03 1014.43 1014.55 1014.52 1014.52 1014.72 1014.84 1015.08 1015.28 1015.35 1015.59 1015.55 1015.43 1015.43 1015.52 1015.64 1015.76 1015.72 1015.55 1015.47 1015.40 1015.11 1014.91 1014.79 1014.67 1014.55 1014.47 1014.47 1014.43 1014.35 1014.20 1014.03 1013.84 1013.64 1013.47 1013.32 1013.11 1012.96 1012.72 1012.43 1012.28 1012.11 1011.91 1011.76 1011.52 1011.32 1011.23 1011.08 1010.99 1010.88 1010.55 1010.35 1009.91 1009.35 1008.96 1008.79 1008.20 1007.43 1007.16 1007.20 1007.08 1006.84 1006.52 1005.96 1005.40 1004.99 1004.43 1004.08 1003.59 1003.16
1012.88 1013.32 1013.43 1013.67 1013.91 1014.03 1014.11 1014.23 1014.43 1014.47 1014.64 1014.91 1015.11 1015.28 1015.32 1015.23 1015.20 1015.28 1015.35 1015.32 1015.35 1015.32 1015.28 1015.28 1015.20 1015.03 1014.84 1014.67 1014.55 1014.47 1014.47 1014.47 1014.32 1014.16 1014.08 1013.96 1013.72 1013.55 1013.40 1013.40 1013.11 1012.79 1012.43 1012.20 1011.99 1011.76 1011.55 1011.32 1011.08 1010.96 1011.08 1010.84 1010.59 1010.47 1010.08 1009.99 1009.79 1009.20 1008.67 1008.35 1008.16 1008.08 1006.72 1006.47 1006.35 1006.20 1005.91 1005.47 1004.88 1004.23 1003.76 1003.28 1002.67 1002.23
1013.20 1013.43 1013.79 1013.96 1014.16 1014.40 1014.59 1014.59 1014.52 1014.52 1014.55 1014.55 1014.59 1014.72 1014.88 1014.96 1014.99 1014.96 1014.88 1014.99 1015.11 1015.16 1015.20 1015.08 1014.84 1014.72 1014.67 1014.59 1014.52 1014.47 1014.47 1014.40 1014.11 1013.96 1013.91 1013.79 1013.64 1013.43 1013.40 1013.32 1013.03 1012.67 1012.32 1012.03 1011.84 1011.52 1011.23 1010.99 1010.84 1010.64 1010.59 1010.52 1010.47 1009.96 1009.67 1009.59 1009.35 1008.88 1008.52 1008.11 1007.79 1007.32 1006.88 1006.55 1006.03 1005.64 1005.35 1004.96 1004.40 1003.76 1003.16 1002.72 1002.08 1001.32
1013.16 1013.47 1013.67 1013.84 1014.08 1014.20 1014.20 1014.35 1014.43 1014.47 1014.47 1014.43 1014.40 1014.47 1014.59 1014.72 1014.79 1014.88 1014.88 1014.99 1014.96 1014.84 1014.79 1014.79 1014.72 1014.64 1014.55 1014.55 1014.52 1014.47 1014.40 1014.11 1013.96 1013.88 1013.79 1013.59 1013.52 1013.32 1013.28 1013.20 1012.96 1012.72 1012.43 1012.08 1011.76 1011.40 1011.03 1010.76 1010.47 1010.32 1010.16 1010.03 1009.91 1009.79 1009.72 1009.43 1008.79 1008.47 1008.35 1007.88 1007.59 1007.16 1006.59 1006.16 1005.79 1005.20 1004.76 1004.47 1003.96 1003.28 1002.47 1001.88 1001.28 1000.64
1012.96 1013.32 1013.55 1013.76 1013.91 1014.16 1014.20 1014.23 1014.23 1014.23 1014.28 1014.28 1014.28 1014.28 1014.28 1014.35 1014.47 1014.43 1014.55 1014.67 1014.59 1014.64 1014.64 1014.55 1014.59 1014.59 1014.59 1014.59 1014.59 1014.43 1014.16 1013.99 1013.96 1013.79 1013.67 1013.52 1013.40 1013.40 1013.20 1013.03 1012.79 1012.59 1012.43 1012.16 1011.79 1011.35 1010.96 1010.59 1010.32 1010.08 1009.88 1009.67 1009.43 1009.35 1009.32 1009.28 1008.72 1008.16 1007.91 1007.76 1007.47 1006.99 1006.28 1005.91 1005.35 1004.96 1004.59 1004.28 1003.64 1002.76 1001.91 1001.23 1000.64 999.91
1012.84 1013.23 1013.47 1013.67 1013.79 1013.79 1013.88 1013.91 1013.96 1013.99 1014.03 1013.96 1013.96 1013.99 1013.99 1014.03 1014.03 1014.16 1014.32 1014.43 1014.52 1014.52 1014.47 1014.47 1014.47 1014.43 1014.43 1014.40 1014.32 1014.20 1014.11 1014.03 1013.84 1013.67 1013.52 1013.47 1013.35 1013.23 1013.08 1012.96 1012.72 1012.47 1012.23 1011.99 1011.67 1011.23 1010.96 1010.64 1010.35 1010.16 1009.84 1009.59 1009.40 1008.84 1008.64 1008.47 1008.40 1008.08 1007.84 1007.59 1007.28 1006.91 1006.23 1005.64 1005.20 1004.67 1004.28 1003.64 1003.28 1002.72 1001.59 1000.84 1000.28 999.84
1012.76 1012.96 1013.16 1013.32 1013.40 1013.52 1013.64 1013.59 1013.55 1013.47 1013.43 1013.40 1013.52 1013.55 1013.76 1013.79 1013.91 1014.11 1014.20 1014.16 1014.20 1014.20 1014.23 1014.28 1014.28 1014.28 1014.23 1014.11 1014.11 1014.11 1014.08 1013.91 1013.72 1013.64 1013.55 1013.40 1013.23 1013.03 1012.91 1012.76 1012.55 1012.28 1012.08 1011.88 1011.55 1011.20 1010.88 1010.59 1010.35 1010.28 1010.11 1009.84 1009.76 1009.35 1008.47 1007.99 1008.03 1007.96 1007.84 1007.55 1007.23 1006.79 1006.16 1005.59 1005.08 1004.64 1004.11 1003.47 1002.96 1002.59 1001.84 1000.91 999.84 999.08
1012.52 1012.64 1012.72 1012.79 1012.79 1012.91 1013.08 1012.99 1012.91 1012.84 1012.76 1012.79 1013.03 1013.20 1013.32 1013.47 1013.72 1013.76 1013.88 1014.03 1014.16 1014.20 1014.23 1014.23 1014.28 1014.28 1014.20 1014.11 1014.08 1014.03 1013.91 1013.84 1013.79 1013.64 1013.52 1013.32 1013.16 1013.03 1012.88 1012.64 1012.40 1012.16 1011.99 1011.67 1011.40 1011.08 1010.79 1010.59 1010.23 1010.16 1010.03 1009.88 1009.76 1009.59 1008.91 1008.08 1007.84 1007.84 1007.79 1007.67 1007.23 1006.72 1006.28 1005.67 1005.11 1004.43 1003.88 1003.47 1002.72 1002.40 1001.91 1001.23 1000.03 998.91
1012.08 1012.08 1012.16 1012.23 1012.32 1012.43 1012.55 1012.64 1012.72 1012.91 1013.08 1013.16 1013.23 1013.32 1013.40 1013.55 1013.79 1013.91 1013.96 1014.08 1014.20 1014.28 1014.32 1014.35 1014.32 1014.20 1013.99 1013.96 1013.99 1013.99 1013.96 1013.88 1013.76 1013.59 1013.35 1013.20 1013.11 1012.96 1012.79 1012.59 1012.35 1012.11 1011.88 1011.59 1011.32 1010.96 1010.67 1010.47 1010.23 1009.96 1009.88 1009.84 1009.59 1009.23 1008.84 1008.03 1007.88 1007.47 1007.32 1007.32 1007.16 1006.72 1006.28 1005.84 1005.23 1004.52 1003.64 1003.08 1002.79 1002.11 1001.64 1000.96 1000.03 998.96
1011.72 1011.88 1012.08 1012.20 1012.28 1012.35 1012.59 1012.76 1012.84 1013.03 1013.08 1013.16 1013.23 1013.32 1013.43 1013.64 1013.84 1013.91 1013.91 1013.96 1014.03 1014.08 1014.16 1014.20 1014.20 1014.03 1013.88 1013.88 1013.96 1013.99 1013.96 1013.76 1013.55 1013.40 1013.28 1013.16 1013.08 1012.91 1012.67 1012.47 1012.32 1011.96 1011.79 1011.47 1011.16 1010.88 1010.55 1010.40 1010.11 1009.88 1009.67 1009.55 1009.32 1008.79 1008.64 1008.79 1008.20 1007.43 1007.11 1007.08 1007.03 1006.79 1006.32 1005.99 1005.40 1004.59 1003.91 1003.11 1002.32 1001.88 1001.40 1000.72 999.67 998.76
1011.64 1011.76 1011.88 1011.99 1012.28 1012.40 1012.55 1012.64 1012.79 1012.88 1013.03 1013.20 1013.32 1013.35 1013.40 1013.55 1013.72 1013.84 1013.91 1013.96 1013.99 1014.08 1014.11 1014.11 1013.99 1013.79 1013.76 1013.91 1013.96 1013.91 1013.76 1013.55 1013.43 1013.35 1013.23 1013.16 1012.91 1012.76 1012.59 1012.40 1012.20 1011.91 1011.72 1011.43 1011.11 1010.76 1010.52 1010.23 1009.91 1009.59 1009.28 1008.99 1008.59 1008.23 1008.23 1008.23 1007.91 1007.43 1007.16 1006.91 1006.79 1006.76 1006.47 1006.03 1005.55 1004.88 1004.03 1003.40 1002.72 1001.99 1001.03 1000.11 999.43 998.52
1011.59 1011.72 1011.76 1011.88 1012.08 1012.23 1012.43 1012.55 1012.64 1012.84 1013.11 1013.20 1013.23 1013.32 1013.40 1013.55 1013.72 1013.79 1013.79 1013.84 1013.84 1013.84 1013.76 1013.76 1013.67 1013.72 1013.88 1013.88 1013.84 1013.76 1013.55 1013.47 1013.40 1013.28 1013.20 1013.03 1012.84 1012.72 1012.47 1012.28 1012.03 1011.79 1011.67 1011.35 1011.08 1010.76 1010.40 1009.96 1009.43 1008.91 1008.67 1008.43 1008.16 1008.03 1007.99 1007.99 1007.79 1007.35 1007.11 1006.79 1006.55 1006.35 1006.11 1005.84 1005.43 1004.96 1004.40 1003.64 1003.11 1002.52 1001.59 1000.64 999.67 998.52
1011.35 1011.43 1011.55 1011.76 1011.96 1012.11 1012.23 1012.43 1012.52 1012.76 1012.96 1013.03 1013.11 1013.16 1013.43 1013.52 1013.52 1013.52 1013.55 1013.55 1013.52 1013.52 1013.64 1013.64 1013.64 1013.76 1013.76 1013.72 1013.64 1013.52 1013.52 1013.43 1013.35 1013.28 1013.08 1012.99 1012.84 1012.64 1012.40 1012.20 1011.99 1011.72 1011.55 1011.32 1010.96 1010.55 1010.03 1009.52 1009.11 1008.84 1008.52 1008.32 1008.08 1008.11 1008.23 1008.11 1007.91 1007.64 1007.32 1006.96 1006.52 1006.16 1005.88 1005.47 1005.08 1004.72 1004.32 1003.88 1003.43 1002.76 1001.88 1000.91 1000.32 999.67
1011.08 1011.32 1011.55 1011.67 1011.79 1011.96 1012.11 1012.32 1012.47 1012.59 1012.72 1012.76 1012.96 1013.03 1013.16 1013.32 1013.32 1013.35 1013.40 1013.43 1013.52 1013.52 1013.47 1013.52 1013.52 1013.59 1013.55 1013.43 1013.43 1013.43 1013.35 1013.32 1013.28 1013.16 1013.03 1012.91 1012.79 1012.55 1012.32 1012.08 1011.88 1011.64 1011.40 1011.11 1010.76 1010.35 1009.84 1009.40 1009.08 1008.88 1008.55 1008.35 1008.11 1008.16 1008.20 1007.96 1007.84 1007.76 1007.47 1007.16 1006.67 1006.23 1005.76 1005.32 1004.91 1004.47 1004.08 1003.72 1003.52 1003.28 1002.91 1002.23 1001.35 1000.47
1011.03 1011.28 1011.32 1011.43 1011.64 1011.84 1011.99 1012.16 1012.32 1012.40 1012.47 1012.64 1012.76 1012.88 1012.99 1013.28 1013.40 1013.40 1013.40 1013.28 1013.23 1013.28 1013.32 1013.40 1013.40 1013.28 1013.20 1013.32 1013.32 1013.23 1013.23 1013.20 1013.16 1013.11 1012.99 1012.84 1012.55 1012.35 1012.20 1011.96 1011.67 1011.47 1011.23 1011.03 1010.67 1010.20 1009.72 1009.35 1009.08 1008.91 1008.72 1008.43 1008.23 1008.16 1008.08 1007.88 1007.88 1007.88 1007.76 1007.47 1006.96 1006.43 1005.91 1005.23 1004.72 1004.35 1003.96 1003.59 1003.32 1002.96 1002.52 1002.16 1001.88 1001.55
1010.79 1010.96 1011.11 1011.28 1011.47 1011.64 1011.79 1011.91 1012.03 1012.20 1012.35 1012.43 1012.59 1012.84 1012.88 1012.96 1013.03 1013.03 1013.03 1013.03 1012.99 1013.03 1013.11 1013.16 1013.11 1013.20 1013.28 1013.20 1013.20 1013.20 1013.16 1013.11 1013.08 1012.99 1012.84 1012.59 1012.40 1012.23 1012.08 1011.84 1011.59 1011.43 1011.20 1010.91 1010.79 1010.23 1009.76 1009.52 1009.16 1008.88 1008.64 1008.43 1008.35 1008.23 1008.08 1007.96 1007.96 1008.03 1007.88 1007.67 1007.40 1006.91 1006.35 1005.67 1005.08 1004.55 1004.23 1003.79 1003.35 1002.99 1002.59 1002.11 1001.67 1001.20
Thickness
5737 5735 5734 5731 5728 5727 5726 5725 5723 5722 5719 5717 5713 5709 5705 5699 5692 5688 5687 5689 5694 5699 5701 5701 5705 5709 5709 5708 5707 5706 5706 5707 5708 5708 5706 5706 5704 5703 5702 5701 5701 5700 5699 5699 5698 5697 5697 5695 5694 5694 5694 5694 5694 5694 5694 5694 5694 5694 5694 5694 5694 5695 5695 5695 5695 5696 5697 5699 5700 5700 5701 5703 5704 5705
5735 5732 5731 5729 5727 5725 5723 5722 5721 5719 5716 5714 5711 5707 5705 5701 5695 5690 5685 5685 5690 5694 5696 5697 5699 5702 5704 5704 5703 5703 5703 5703 5704 5704 5704 5704 5703 5702 5701 5700 5700 5699 5698 5698 5697 5696 5695 5694 5693 5692 5691 5691 5692 5692 5692 5692 5692 5692 5692 5692 5692 5692 5692 5693 5692 5693 5694 5696 5697 5698 5698 5700 5701 5703
5734 5730 5728 5726 5725 5723 5721 5719 5717 5716 5714 5711 5708 5705 5702 5700 5697 5694 5687 5683 5688 5692 5692 5693 5697 5697 5698 5699 5699 5699 5700 5700 5700 5700 5700 5700 5701 5700 5700 5699 5698 5698 5697 5697 5696 5695 5693 5692 5691 5690 5689 5689 5689 5690 5690 5690 5690 5690 5689 5689 5689 5689 5690 5690 5690 5690 5691 5692 5693 5695 5696 5697 5698 5699
5733 5729 5726 5724 5723 5721 5719 5717 5715 5713 5712 5709 5706 5702 5699 5697 5695 5693 5688 5682 5684 5690 5691 5691 5693 5695 5695 5695 5695 5695 5696 5697 5697 5697 5697 5697 5697 5697 5697 5697 5696 5696 5695 5695 5694 5693 5692 5691 5690 5689 5688 5687 5687 5688 5688 5688 5688 5688 5687 5686 5686 5687 5686 5687 5687 5688 5688 5689 5689 5691 5693 5694 5695 5696
5732 5728 5725 5722 5722 5720 5717 5715 5712 5710 5708 5705 5702 5699 5696 5694 5692 5691 5687 5682 5681 5684 5689 5690 5691 5692 5692 5690 5690 5691 5691 5692 5693 5694 5694 5694 5693 5693 5693 5693 5693 5693 5692 5692 5691 5690 5690 5689 5688 5687 5687 5686 5686 5685 5685 5685 5685 5685 5684 5684 5683 5684 5683 5684 5684 5684 5685 5686 5686 5687 5688 5690 5692 5692
5732 5727 5724 5721 5720 5718 5716 5713 5711 5708 5705 5702 5699 5697 5695 5692 5691 5689 5686 5682 5679 5679 5683 5686 5686 5688 5687 5686 5687 5688 5687 5688 5689 5689 5690 5690 5690 5690 5690 5690 5689 5689 5689 5688 5688 5687 5686 5686 5685 5685 5684 5684 5683 5682 5682 5683 5682 5681 5680 5680 5680 5680 5681 5681 5681 5681 5682 5683 5683 5684 5685 5685 5687 5689
5732 5728 5723 5720 5719 5717 5713 5711 5709 5707 5705 5702 5698 5696 5694 5690 5688 5687 5685 5681 5679 5677 5679 5681 5681 5682 5683 5682 5685 5686 5685 5685 5686 5685 5685 5685 5685 5685 5685 5685 5685 5685 5684 5683 5683 5683 5682 5682 5681 5681 5681 5680 5679 5679 5679 5679 5678 5677 5677 5676 5676 5677 5677 5677 5678 5678 5679 5679 5680 5680 5681 5681 5682 5683
5729 5726 5722 5719 5717 5714 5711 5709 5708 5706 5703 5701 5698 5695 5693 5690 5687 5686 5685 5682 5679 5677 5676 5678 5679 5679 5679 5681 5682 5682 5681 5682 5682 5682 5681 5680 5681 5680 5680 5680 5680 5680 5680 5679 5678 5678 5677 5677 5677 5677 5676 5676 5676 5675 5675 5674 5673 5673 5672 5672 5672 5673 5673 5674 5674 5675 5675 5676 5676 5676 5676 5677 5677 5678
5727 5724 5721 5718 5715 5712 5708 5707 5706 5704 5702 5700 5697 5693 5691 5690 5687 5685 5683 5681 5678 5675 5673 5674 5676 5677 5676 5677 5679 5679 5677 5677 5679 5679 5677 5675 5675 5674 5674 5674 5674 5674 5674 5674 5673 5672 5672 5672 5672 5672 5672 5672 5672 5671 5670 5670 5669 5668 5668 5669 5669 5669 5670 5670 5670 5671 5671 5672 5672 5672 5672 5673 5673 5674
5725 5722 5719 5717 5715 5711 5707 5705 5703 5701 5699 5697 5695 5691 5688 5686 5684 5682 5680 5678 5675 5673 5671 5671 5672 5672 5672 5672 5674 5676 5673 5672 5673 5673 5673 5672 5671 5668 5667 5667 5667 5668 5668 5668 5667 5667 5667 5667 5667 5668 5667 5667 5666 5666 5666 5665 5665 5664 5664 5664 5665 5665 5666 5666 5666 5666 5667 5667 5668 5669 5669 5669 5669 5670
5724 5721 5718 5716 5713 5710 5707 5704 5701 5698 5697 5694 5692 5690 5687 5684 5681 5678 5677 5675 5672 5670 5669 5668 5667 5668 5669 5668 5669 5671 5671 5668 5668 5667 5665 5666 5666 5664 5662 5661 5662 5662 5662 5662 5661 5660 5661 5661 5662 5663 5663 5662 5662 5661 5660 5660 5660 5660 5659 5660 5660 5660 5661 5661 5661 5661 5661 5662 5663 5664 5665 5665 5665 5666
5723 5720 5718 5715 5713 5710 5708 5704 5700 5698 5696 5694 5690 5688 5687 5683 5681 5678 5675 5673 5670 5669 5667 5665 5665 5665 5665 5666 5665 5665 5664 5662 5661 5661 5660 5659 5661 5660 5658 5657 5656 5657 5657 5656 5656 5656 5656 5657 5657 5657 5657 5657 5657 5657 5656 5656 5655 5655 5655 5655 5655 5655 5655 5655 5655 5655 5656 5657 5658 5659 5660 5661 5662 5664
5722 5719 5717 5715 5712 5710 5707 5704 5701 5698 5696 5694 5689 5686 5684 5681 5679 5676 5674 5670 5668 5665 5663 5661 5661 5661 5660 5660 5659 5657 5657 5655 5656 5657 5656 5654 5654 5653 5653 5653 5652 5652 5652 5652 5652 5652 5652 5653 5653 5653 5652 5652 5652 5651 5651 5651 5650 5650 5650 5650 5650 5649 5650 5649 5650 5651 5651 5652 5653 5655 5656 5657 5658 5660
5719 5717 5715 5714 5711 5709 5706 5703 5700 5697 5694 5693 5689 5685 5682 5679 5676 5673 5670 5667 5664 5661 5659 5658 5657 5655 5654 5654 5653 5652 5652 5653 5652 5652 5650 5648 5647 5646 5645 5646 5648 5648 5647 5646 5647 5648 5647 5647 5647 5646 5646 5645 5645 5644 5644 5644 5643 5643 5643 5644 5644 5644 5645 5646 5646 5647 5648 5648 5649 5650 5651 5653 5654 5656
5716 5715 5713 5712 5710 5707 5704 5700 5698 5694 5690 5689 5688 5685 5681 5678 5675 5672 5667 5664 5661 5659 5657 5656 5655 5652 5650 5651 5650 5648 5648 5647 5646 5645 5643 5641 5640 5638 5636 5636 5639 5642 5642 5641 5641 5641 5641 5639 5639 5639 5638 5638 5638 5638 5638 5638 5637 5637 5637 5638 5639 5639 5641 5641 5641 5642 5643 5643 5644 5645 5647 5649 5651 5653
5714 5712 5709 5708 5707 5704 5701 5697 5693 5690 5687 5686 5685 5682 5679 5675 5673 5671 5667 5663 5660 5657 5655 5653 5651 5649 5647 5647 5645 5643 5642 5641 5640 5639 5637 5636 5634 5633 5630 5630 5632 5635 5636 5635 5634 5635 5634 5632 5632 5632 5632 5632 5633 5633 5633 5633 5632 5632 5632 5633 5634 5634 5635 5636 5636 5637 5638 5639 5640 5642 5643 5645 5647 5648
5714 5711 5707 5705 5703 5700 5698 5694 5691 5688 5685 5683 5680 5677 5675 5672 5670 5669 5666 5663 5660 5656 5653 5649 5648 5646 5644 5642 5642 5640 5638 5637 5634 5632 5631 5631 5629 5627 5626 5626 5627 5629 5629 5627 5627 5628 5627 5626 5625 5626 5626 5627 5628 5628 5628 5627 5626 5626 5627 5627 5627 5628 5628 5630 5630 5632 5633 5634 5636 5638 5639 5641 5642 5644
5713 5711 5707 5703 5699 5697 5695 5692 5688 5685 5682 5680 5677 5674 5671 5670 5668 5666 5663 5660 5657 5653 5650 5646 5645 5645 5643 5640 5640 5638 5636 5632 5629 5627 5626 5625 5624 5623 5622 5623 5623 5623 5622 5620 5619 5620 5620 5620 5620 5621 5622 5623 5624 5622 5621 5621 5620 5620 5620 5621 5622 5622 5623 5625 5626 5628 5629 5631 5632 5634 5636 5637 5638 5640
5714 5711 5707 5702 5698 5694 5692 5690 5687 5683 5679 5677 5673 5670 5667 5665 5663 5662 5660 5658 5654 5650 5647 5644 5643 5643 5641 5639 5637 5635 5632 5629 5626 5625 5624 5623 5621 5620 5619 5618 5616 5616 5617 5614 5612 5613 5615 5615 5614 5615 5617 5617 5617 5616 5614 5613 5613 5614 5615 5616 5617 5618 5620 5621 5623 5624 5625 5627 5628 5630 5632 5633 5635 5636
5713 5710 5705 5700 5696 5692 5690 5687 5685 5681 5677 5673 5669 5666 5663 5661 5659 5658 5657 5655 5652 5648 5645 5643 5641 5640 5637 5635 5633 5630 5627 5625 5623 5622 5620 5618 5616 5614 5611 5611 5610 5610 5611 5610 5608 5608 5610 5609 5608 5610 5610 5610 5610 5610 5608 5608 5608 5609 5611 5612 5613 5615 5617 5618 5619 5620 5621 5623 5624 5626 5627 5628 5630 5631
5711 5707 5703 5698 5693 5690 5687 5685 5682 5678 5673 5669 5665 5662 5659 5656 5654 5654 5653 5651 5647 5644 5642 5639 5636 5634 5632 5630 5628 5625 5623 5621 5619 5615 5612 5610 5609 5607 5604 5604 5604 5604 5605 5605 5604 5602 5603 5603 5602 5603 5604 5604 5604 5604 5603 5603 5604 5605 5607 5608 5610 5611 5612 5613 5614 5615 5617 5619 5620 5621 5623 5623 5625 5626
5708 5705 5701 5697 5692 5689 5685 5682 5678 5673 5669 5665 5660 5657 5654 5651 5649 5648 5645 5643 5640 5637 5636 5633 5630 5629 5626 5624 5622 5620 5618 5616 5613 5609 5606 5605 5604 5601 5599 5598 5599 5599 5598 5598 5598 5596 5595 5595 5595 5595 5598 5600 5599 5598 5598 5600 5601 5602 5603 5605 5606 5607 5608 5609 5610 5611 5612 5614 5616 5617 5618 5620 5620 5622
5704 5701 5698 5695 5691 5686 5682 5678 5674 5670 5665 5660 5656 5652 5649 5646 5643 5641 5638 5635 5632 5630 5627 5626 5624 5622 5620 5618 5616 5615 5612 5611 5608 5604 5603 5602 5599 5595 5594 5593 5591 5590 5590 5591 5591 5589 5589 5589 5588 5588 5590 5594 5595 5595 5595 5597 5598 5599 5600 5601 5602 5603 5603 5604 5606 5607 5608 5610 5612 5613 5614 5615 5616 5617
5699 5696 5693 5691 5687 5683 5678 5674 5669 5665 5661 5656 5652 5649 5645 5641 5638 5635 5632 5628 5626 5623 5621 5619 5617 5616 5614 5612 5610 5609 5607 5605 5603 5600 5599 5596 5593 5590 5588 5587 5585 5584 5585 5586 5585 5583 5583 5584 5584 5583 5582 5585 5590 5593 5593 5595 5596 5596 5596 5597 5597 5599 5600 5601 5602 5604 5605 5607 5608 5609 5611 5611 5611 5612
5694 5691 5688 5685 5683 5679 5674 5668 5663 5659 5655 5651 5648 5645 5641 5637 5633 5629 5625 5623 5620 5617 5615 5614 5612 5610 5607 5605 5603 5602 5601 5600 5597 5595 5593 5591 5589 5587 5585 5583 5582 5580 5581 5582 5581 5579 5579 5579 5580 5580 5580 5580 5584 5587 5589 5591 5593 5593 5593 5593 5594 5595 5596 5596 5598 5600 5602 5604 5605 5605 5606 5607 5607 5607
5692 5688 5685 5683 5679 5674 5668 5663 5658 5653 5649 5645 5643 5639 5635 5631 5626 5623 5621 5618 5615 5613 5610 5608 5606 5603 5600 5599 5597 5596 5595 5593 5592 5590 5588 5586 5585 5584 5583 5582 5580 5578 5579 5580 5579 5576 5575 5575 5576 5576 5577 5578 5580 5582 5583 5585 5589 5591 5590 5589 5590 5592 5592 5592 5594 5596 5597 5598 5600 5600 5600 5600 5601 5602
5690 5687 5683 5679 5675 5669 5663 5658 5653 5648 5644 5642 5638 5633 5629 5625 5621 5619 5616 5613 5610 5607 5605 5602 5599 5597 5595 5594 5592 5591 5589 5588 5587 5585 5584 5583 5582 5581 5580 5580 5579 5578 5578 5578 5577 5575 5573 5573 5574 5574 5573 5574 5576 5576 5577 5580 5584 5587 5587 5587 5588 5589 5589 5587 5588 5591 5593 5593 5594 5595 5595 5595 5596 5598
5688 5684 5680 5675 5670 5664 5658 5653 5648 5643 5640 5636 5632 5628 5624 5620 5617 5614 5611 5608 5605 5602 5598 5596 5593 5592 5591 5590 5588 5587 5585 5584 5583 5581 5580 5579 5579 5578 5578 5577 5576 5576 5576 5575 5575 5574 5572 5572 5573 5574 5573 5571 5571 5571 5573 5577 5580 5582 5583 5585 5586 5587 5585 5583 5583 5584 5586 5586 5587 5587 5587 5589 5592 5595
5685 5681 5676 5669 5663 5657 5652 5647 5642 5638 5634 5631 5627 5623 5619 5615 5613 5610 5607 5603 5599 5596 5594 5592 5590 5589 5588 5587 5585 5583 5582 5580 5579 5578 5576 5575 5575 5576 5575 5574 5574 5574 5574 5574 5573 5573 5572 5571 5572 5573 5572 5571 5569 5568 5571 5574 5576 5578 5579 5581 5584 5586 5584 5579 5577 5577 5578 5578 5580 5581 5581 5584 5589 5592
5680 5675 5669 5663 5657 5652 5648 5643 5639 5634 5630 5627 5623 5619 5615 5612 5609 5606 5602 5599 5595 5592 5589 5588 5585 5584 5583 5582 5581 5579 5578 5576 5574 5573 5572 5571 5572 5572 5572 5571 5571 5572 5573 5573 5572 5572 5572 5571 5571 5571 5570 5569 5568 5567 5568 5569 5571 5574 5576 5576 5579 5583 5584 5579 5574 5571 5570 5573 5576 5577 5579 5583 5587 5591
5672 5667 5662 5658 5653 5648 5643 5639 5635 5631 5628 5624 5620 5616 5613 5609 5606 5602 5599 5595 5592 5588 5586 5583 5581 5580 5579 5577 5575 5574 5572 5570 5569 5569 5569 5568 5568 5569 5568 5568 5568 5569 5570 5571 5570 5570 5570 5570 5570 5569 5567 5566 5566 5566 5566 5565 5565 5569 5573 5572 5572 5576 5579 5578 5574 5570 5568 5570 5574 5577 5579 5583 5588 5592
5664 5659 5655 5651 5646 5642 5637 5632 5629 5626 5623 5621 5618 5614 5610 5606 5602 5599 5596 5593 5588 5585 5583 5580 5578 5577 5575 5573 5571 5569 5567 5566 5566 5566 5565 5565 5565 5566 5565 5565 5566 5567 5568 5568 5567 5567 5568 5567 5567 5566 5565 5564 5563 5564 5564 5564 5563 5565 5568 5569 5568 5570 5572 5571 5570 5569 5567 5567 5572 5576 5580 5584 5589 5594
5658 5653 5649 5644 5640 5636 5631 5628 5624 5621 5619 5617 5614 5610 5607 5602 5600 5598 5594 5589 5586 5583 5581 5579 5576 5573 5571 5568 5566 5565 5564 5563 5564 5563 5563 5563 5563 5563 5563 5562 5563 5563 5564 5564 5564 5565 5565 5565 5565 5565 5564 5563 5562 5560 5559 5561 5563 5563 5564 5565 5565 5566 5568 5567 5566 5567 5567 5566 5571 5577 5582 5585 5590 5596
5653 5648 5644 5639 5635 5631 5627 5623 5621 5618 5615 5613 5610 5608 5605 5601 5599 5597 5592 5587 5584 5581 5578 5576 5572 5569 5566 5564 5562 5562 5561 5561 5560 5560 5560 5560 5560 5560 5560 5560 5560 5560 5560 5560 5561 5562 5564 5564 5564 5564 5563 5562 5561 5558 5554 5555 5560 5563 5563 5561 5561 5563 5565 5566 5565 5564 5565 5565 5569 5577 5583 5587 5591 5596
5649 5644 5639 5635 5631 5627 5623 5621 5618 5615 5613 5612 5609 5606 5604 5601 5598 5595 5590 5585 5582 5578 5575 5573 5569 5566 5564 5561 5560 5559 5559 5558 5557 5557 5558 5557 5556 5557 5557 5557 5557 5557 5557 5557 5558 5559 5560 5561 5561 5561 5561 5560 5559 5557 5554 5553 5554 5557 5559 5559 5558 5559 5561 5563 5563 5562 5563 5565 5568 5573 5581 5587 5591 5595
5644 5640 5636 5632 5629 5625 5621 5619 5617 5615 5614 5613 5609 5606 5602 5599 5596 5591 5586 5583 5579 5576 5573 5570 5566 5564 5562 5560 5558 5557 5555 5555 5555 5554 5554 5554 5554 5555 5555 5554 5555 5555 5554 5554 5555 5556 5557 5557 5557 5557 5556 5556 5555 5555 5555 5553 5551 5550 5552 5554 5554 5555 5557 5560 5560 5559 5560 5563 5567 5571 5576 5584 5591 5597
5641 5638 5635 5631 5628 5625 5621 5619 5617 5615 5613 5610 5606 5603 5600 5596 5593 5588 5584 5581 5577 5573 5570 5566 5563 5561 5559 5557 5556 5554 5553 5553 5552 5551 5551 5551 5551 5552 5551 5551 5552 5552 5551 5551 5552 5553 5553 5554 5554 5553 5553 5553 5551 5551 5554 5555 5551 5546 5545 5547 5549 5551 5552 5554 5557 5557 5558 5561 5565 5569 5573 5579 5588 5596
5640 5637 5634 5631 5627 5624 5620 5618 5615 5612 5608 5605 5602 5599 5596 5593 5589 5585 5582 5578 5574 5571 5567 5563 5561 5559 5558 5557 5554 5552 5551 5550 5549 5549 5550 5549 5549 5549 5549 5549 5549 5548 5548 5549 5548 5550 5551 5551 5551 5551 5549 5549 5548 5550 5551 5553 5552 5549 5544 5543 5544 5546 5547 5548 5550 5554 5557 5560 5563 5567 5572 5576 5585 5595
5638 5635 5631 5627 5624 5621 5617 5614 5611 5607 5604 5602 5599 5596 5593 5589 5586 5583 5580 5577 5573 5569 5566 5562 5560 5558 5557 5555 5552 5550 5549 5548 5547 5548 5547 5546 5546 5546 5546 5546 5546 5546 5545 5546 5546 5547 5548 5547 5547 5548 5547 5546 5547 5549 5548 5547 5548 5549 5546 5542 5540 5541 5541 5542 5545 5549 5553 5557 5561 5566 5572 5578 5586 5594
5635 5631 5628 5624 5620 5617 5614 5610 5607 5603 5601 5598 5596 5593 5590 5587 5583 5581 5578 5575 5571 5568 5564 5561 5559 5558 5555 5553 5550 5549 5548 5547 5546 5546 5545 5544 5544 5544 5543 5543 5543 5543 5543 5543 5543 5544 5545 5545 5546 5547 5547 5547 5548 5549 5548 5545 5545 5547 5545 5541 5539 5537 5535 5536 5539 5543 5548 5552 5556 5562 5570 5578 5586 5593
5631 5628 5625 5621 5617 5614 5611 5608 5604 5601 5597 5595 5593 5591 5588 5585 5582 5579 5576 5573 5570 5567 5564 5561 5559 5556 5553 5551 5549 5548 5547 5546 5544 5543 5542 5542 5541 5540 5540 5540 5540 5540 5540 5540 5540 5541 5542 5544 5546 5547 5547 5548 5548 5548 5545 5543 5543 5544 5543 5542 5540 5537 5535 5534 5535 5538 5543 5547 5550 5555 5563 5571 5580 5588
5628 5625 5621 5618 5614 5612 5608 5605 5602 5599 5596 5594 5592 5590 5587 5584 5581 5578 5575 5573 5570 5567 5564 5561 5558 5555 5552 5550 5548 5547 5545 5543 5542 5541 5540 5539 5538 5538 5537 5538 5537 5537 5537 5536 5537 5539 5540 5543 5545 5546 5545 5546 5546 5544 5541 5540 5540 5541 5541 5540 5539 5538 5537 5535 5535 5536 5539 5542 5544 5549 5555 5563 5572 5579
5625 5622 5618 5614 5612 5609 5606 5603 5601 5599 5596 5594 5592 5589 5586 5583 5580 5577 5574 5572 5569 5566 5563 5560 5557 5554 5552 5550 5547 5545 5544 5542 5540 5539 5537 5536 5536 5536 5535 5535 5534 5534 5534 5534 5534 5536 5538 5540 5541 5541 5541 5542 5542 5540 5539 5538 5537 5536 5536 5536 5537 5538 5537 5536 5535 5535 5537 5539 5541 5544 5548 5554 5561 5567
5623 5619 5616 5613 5609 5606 5604 5602 5600 5598 5596 5593 5590 5587 5585 5581 5578 5576 5574 5571 5569 5566 5563 5559 5557 5554 5552 5549 5547 5544 5543 5540 5538 5537 5535 5534 5534 5533 5533 5532 5532 5531 5531 5531 5531 5532 5535 5536 5537 5537 5537 5538 5538 5537 5536 5535 5534 5532 5531 5531 5532 5534 5536 5537 5537 5537 5537 5538 5540 5543 5546 5549 5553 5559
5620 5617 5615 5612 5608 5606 5603 5601 5599 5597 5594 5592 5589 5586 5583 5580 5577 5575 5573 5570 5568 5565 5562 5559 5557 5554 5551 5548 5546 5543 5541 5538 5536 5535 5534 5533 5533 5531 5531 5530 5529 5528 5528 5527 5527 5529 5530 5531 5532 5533 5533 5534 5534 5534 5532 5532 5530 5528 5527 5526 5526 5528 5530 5532 5532 5532 5533 5536 5537 5540 5544 5548 5552 5557